Location: Marcé
(47.5801°N, 0.3280°W)
Time: 03:58:39
(UTC+01:00)

Explorer 11/Cluster Stage 4 - Pass Details

Date: 05 December 2021
Orbit: 467 x 1255 km, 28.8° (Epoch: 26 January)

Event Time Altitude Azimuth Distance (km) Brightness Sun altitude
Rises 02:22:23 0° 206° (SSW) 3,373 - -59.0°
Reaches altitude 10° 02:27:58 10° 164° (SSE) 2,704 - -58.3°
Maximum altitude 02:28:36 10° 159° (SSE) 2,721 - -58.2°
Drops below altitude 10° 02:29:14 10° 153° (SSE) 2,759 - -58.1°
Sets 02:35:39 0° 114° (ESE) 3,959 - -57.3°
